Zurich Airport, Switzerland

6:27 AM CEST on May 25, 2017 (GMT +0200)
Zurich Airport

Weather History for LSZH - September, 2013

Change the Weather History Date:

Wednesday, September 11, 2013

  Actual Average Record
Temperature  
Mean Temperature 51 °F -  
Max Temperature 57 °F 67 °F 82 °F (1999)
Min Temperature 45 °F 49 °F 39 °F (1996)
Degree Days  
Heating Degree Days 14    
Growing Degree Days 1 (Base 50)    
Moisture  
Dew Point 46 °F    
Average Humidity 76    
Maximum Humidity 94    
Minimum Humidity 49    
Precipitation  
Precipitation 0.03 in - - ()
Sea Level Pressure  
Sea Level Pressure 30.07 in    
Wind  
Wind Speed 5 mph ()    
Max Wind Speed 13 mph    
Max Gust Speed -    
Visibility 6.9 miles    
Events Rain    
Averages and records for this station are not official NWS values.
T = Trace of Precipitation, MM = Missing Value Source: Averaged Metar Reports

Daily Weather History Graph

Daily Weather History Graph

Search for Another Location

Airport or City:

Trip Planner

Search our weather history database for the weather conditions in past years. The results will help you decide how hot, cold, wet, or windy it might be!

Date:

Astronomy

Sep. 11, 2013 Rise Set
Actual Time 6:57 AM CEST 7:46 PM CEST
Civil Twilight 6:26 AM CEST 8:17 PM CEST
Nautical Twilight 5:49 AM CEST 8:54 PM CEST
Astronomical Twilight 5:10 AM CEST 9:33 PM CEST
Moon 1:35 PM CEST (9/11) 11:00 PM CEST (9/11)
Length of Visible Light 13h 50m
Length of Day
12h 48m
Waxing Crescent, 36% of the Moon is Illuminated
Sep 11
Waxing Crescent
Sep 12
First Quarter
Sep 19
Full
Sep 27
Last Quarter
Oct 5
New

Hourly Weather History & Observations

Time (CEST) Temp. Windchill Dew Point Humidity Pressure Visibility Wind Dir Wind Speed Gust Speed Precip Events Conditions
12:00 AM 53 °F - 46 °F 71% 30.12 in - SW 5.8 mph - -  
12:20 AM 51.8 °F - 46.4 °F 82% 30.09 in 6.2 mi SSW 3.5 mph - N/A   Mostly Cloudy
12:50 AM 51.8 °F - 46.4 °F 82% 30.09 in 6.2 mi SW 4.6 mph - N/A   Mostly Cloudy
1:00 AM 52 °F - 47 °F 76% 30.12 in - SW 4.6 mph - -  
1:20 AM 51.8 °F - 46.4 °F 82% 30.09 in 6.2 mi SW 4.6 mph - N/A   Mostly Cloudy
1:50 AM 50.0 °F - 48.2 °F 94% 30.09 in 6.2 mi Variable 2.3 mph - N/A   Mostly Cloudy
2:00 AM 51 °F - 47 °F 83% 30.12 in 16 mi East 2.3 mph - -   Partly Cloudy
2:50 AM 50.0 °F - 46.4 °F 87% 30.09 in 6.2 mi Calm Calm - N/A   Mostly Cloudy
3:00 AM 49 °F - 46 °F 86% 30.12 in - North 2.3 mph - -  
3:20 AM 50.0 °F - 48.2 °F 94% 30.09 in 6.2 mi Calm Calm - N/A   Mostly Cloudy
3:50 AM 46.4 °F 44.3 °F 44.6 °F 93% 30.09 in 6.2 mi SSE 4.6 mph - N/A   Scattered Clouds
4:00 AM 49 °F - 45 °F 82% 30.11 in - South 4.6 mph - -  
4:20 AM 48.2 °F - 46.4 °F 93% 30.09 in 6.2 mi East 2.3 mph - N/A   Partly Cloudy
4:50 AM 46.4 °F - 42.8 °F 87% 30.09 in 6.2 mi Variable 2.3 mph - N/A   Partly Cloudy
5:20 AM 46.4 °F 45.2 °F 44.6 °F 93% 30.06 in 6.2 mi SE 3.5 mph - N/A   Scattered Clouds
5:50 AM 44.6 °F 43.1 °F 42.8 °F 93% 30.06 in 6.2 mi South 3.5 mph - N/A   Scattered Clouds
6:00 AM 45 °F - 43 °F 90% 30.10 in - SSW 4.6 mph - -  
6:20 AM 46.4 °F 44.3 °F 42.8 °F 87% 30.06 in 6.2 mi South 4.6 mph - N/A   Mostly Cloudy
6:50 AM 48.2 °F - 44.6 °F 87% 30.06 in 6.2 mi South 3.5 mph - N/A   Mostly Cloudy
7:00 AM 48 °F - 45 °F 87% 30.10 in - SW 2.3 mph - -  
7:20 AM 46.4 °F - 44.6 °F 93% 30.06 in 6.2 mi WSW 1.2 mph - N/A   Scattered Clouds
7:50 AM 48.2 °F - 46.4 °F 93% 30.09 in 6.2 mi SSW 3.5 mph - N/A   Mostly Cloudy
8:00 AM 50 °F - 46 °F 81% 30.11 in 19 mi SW 4.6 mph - -   Partly Cloudy
8:20 AM 50.0 °F - 46.4 °F 87% 30.09 in 6.2 mi Calm Calm - N/A   Scattered Clouds
8:50 AM 51.8 °F - 46.4 °F 82% 30.09 in 6.2 mi Variable 3.5 mph - N/A   Mostly Cloudy
9:00 AM 53 °F - 46 °F 69% 30.09 in - SW 6.9 mph - -  
9:20 AM 53.6 °F - 46.4 °F 77% 30.06 in 6.2 mi SW 8.1 mph - N/A   Mostly Cloudy
9:50 AM 53.6 °F - 44.6 °F 72% 30.06 in 6.2 mi SW 9.2 mph - N/A   Mostly Cloudy
10:00 AM 54 °F - 45 °F 63% 30.08 in - WSW 8.1 mph - -  
10:20 AM 55.4 °F - 46.4 °F 72% 30.06 in 6.2 mi SW 9.2 mph - N/A   Mostly Cloudy
10:50 AM 55.4 °F - 44.6 °F 67% 30.06 in 6.2 mi WSW 8.1 mph - N/A   Mostly Cloudy
11:20 AM 55.4 °F - 44.6 °F 67% 30.06 in 6.2 mi WSW 10.4 mph - N/A   Mostly Cloudy
11:50 AM 57.2 °F - 44.6 °F 63% 30.06 in 6.2 mi SW 9.2 mph - N/A   Mostly Cloudy
12:00 PM 56 °F - 44 °F 54% 30.07 in - West 10.4 mph - -  
12:20 PM 57.2 °F - 44.6 °F 63% 30.06 in 6.2 mi WSW 9.2 mph - N/A   Mostly Cloudy
12:50 PM 57.2 °F - 44.6 °F 63% 30.06 in 6.2 mi SW 9.2 mph - N/A   Mostly Cloudy
1:00 PM 56 °F - 43 °F 52% 30.06 in - WSW 11.5 mph - -  
1:20 PM 57.2 °F - 44.6 °F 63% 30.06 in 6.2 mi WSW 11.5 mph - N/A   Mostly Cloudy
1:50 PM 57.2 °F - 44.6 °F 63% 30.06 in 6.2 mi WSW 10.4 mph - N/A   Mostly Cloudy
2:00 PM 57 °F - 43 °F 50% 30.06 in 16 mi WSW 11.5 mph - -   Overcast
2:20 PM 57.2 °F - 44.6 °F 63% 30.06 in 6.2 mi WSW 10.4 mph - N/A Rain Light Rain Showers
2:50 PM 57.2 °F - 42.8 °F 59% 30.06 in 6.2 mi WSW 11.5 mph - N/A   Mostly Cloudy
3:00 PM 56 °F - 42 °F 49% 30.06 in - WSW 12.7 mph - -  
3:20 PM 57.2 °F - 42.8 °F 59% 30.06 in 6.2 mi WSW 9.2 mph - N/A Rain Light Rain Showers
3:50 PM 57.2 °F - 44.6 °F 63% 30.06 in 6.2 mi WSW 10.4 mph - N/A Rain Light Rain Showers
4:20 PM 55.4 °F - 44.6 °F 67% 30.06 in 6.2 mi West 11.5 mph - N/A Rain Light Rain Showers
4:50 PM 53.6 °F - 48.2 °F 82% 30.06 in 6.2 mi West 6.9 mph - N/A   Mostly Cloudy
5:20 PM 53.6 °F - 46.4 °F 77% 30.06 in 6.2 mi West 4.6 mph - N/A Rain Light Rain Showers
5:50 PM 53.6 °F - 48.2 °F 82% 30.06 in 6.2 mi SSW 6.9 mph - N/A   Mostly Cloudy
6:00 PM 54 °F - 48 °F 72% 30.08 in - SW 4.6 mph - -  
6:20 PM 55.4 °F - 46.4 °F 72% 30.06 in 6.2 mi WSW 6.9 mph - N/A   Mostly Cloudy
6:50 PM 55.4 °F - 46.4 °F 72% 30.06 in 6.2 mi WSW 4.6 mph - N/A   Mostly Cloudy
7:00 PM 54 °F - 47 °F 70% 30.08 in - SW 4.6 mph - -  
7:20 PM 55.4 °F - 46.4 °F 72% 30.06 in 6.2 mi WSW 4.6 mph - N/A   Mostly Cloudy
7:50 PM 53.6 °F - 46.4 °F 77% 30.06 in 6.2 mi WSW 5.8 mph - N/A Rain Light Rain Showers
8:00 PM 54 °F - 47 °F 71% 30.08 in 12 mi WSW 4.6 mph - - Rain Light Rain Showers
8:20 PM 53.6 °F - 48.2 °F 82% 30.06 in 6.2 mi WSW 5.8 mph - N/A   Mostly Cloudy
8:50 PM 53.6 °F - 48.2 °F 82% 30.06 in 6.2 mi SW 4.6 mph - N/A Rain Light Rain Showers
9:00 PM 53 °F - 48 °F 76% 30.09 in - WSW 3.5 mph - -  
9:20 PM 53.6 °F - 48.2 °F 82% 30.06 in 6.2 mi SW 4.6 mph - N/A Rain Rain Showers
9:50 PM 53.6 °F - 48.2 °F 82% 30.06 in 6.2 mi SW 4.6 mph - N/A Rain Light Rain Showers
10:00 PM 53 °F - 49 °F 80% 30.08 in - WSW 4.6 mph - -  
10:20 PM 53.6 °F - 48.2 °F 82% 30.06 in 6.2 mi SW 4.6 mph - N/A   Mostly Cloudy
10:50 PM 53.6 °F - 48.2 °F 82% 30.06 in 6.2 mi SW 4.6 mph - N/A   Mostly Cloudy
11:20 PM 53.6 °F - 48.2 °F 82% 30.06 in 6.2 mi SW 4.6 mph - N/A   Mostly Cloudy
11:50 PM 53.6 °F - 48.2 °F 82% 30.06 in 6.2 mi SW 4.6 mph - N/A   Mostly Cloudy